UAE766 FAOR-OMDB

Flight info

Callsign UAE766
Flight time N/A
Altitude 39000
Route EGMEN1D EGMEN UQ2 EPSEK UM307 VBR UM310 DV UL437 MOGDU/N0484F410 UL437 VEDET B400 DAXAM Y414 DEDSO R401 VELIK/N0489F400 R401 MUSAP/N0506F350 R401 PEDOG Q308 KIPOK Q568 IMPED
Aircraft A359/H-SDE2E3GHIJ3J4J5LM1ORWXY/LB1D1

Departure

Time N/A
Airport O.R. Tambo International Airport (FAOR)

Arrival

Time 2026-05-06 03:00
Airport Dubai International Airport (OMDB)
Time Latitude Longitude Altitude Speed Heading
2026-05-06 02:40 23.77407 55.82361 38868 ft 499 kts
2026-05-06 02:40 23.84341 55.83092 38874 ft 499 kts
2026-05-06 02:41 23.91201 55.83849 38328 ft 495 kts
2026-05-06 02:41 23.94660 55.84222 37408 ft 500 kts
2026-05-06 02:41 23.98148 55.84591 36499 ft 504 kts
2026-05-06 02:41 24.01615 55.84954 35651 ft 508 kts
2026-05-06 02:42 24.05170 55.85326 34790 ft 511 kts
2026-05-06 02:42 24.08688 55.85693 33945 ft 515 kts
2026-05-06 02:42 24.12296 55.86070 32988 ft 518 kts
2026-05-06 02:42 24.15890 55.86444 32112 ft 518 kts
2026-05-06 02:43 24.19446 55.86816 31272 ft 518 kts
2026-05-06 02:43 24.23064 55.87196 30403 ft 518 kts
2026-05-06 02:43 24.26622 55.87570 29490 ft 517 kts
2026-05-06 02:43 24.30186 55.87946 28568 ft 515 kts
2026-05-06 02:44 24.33751 55.88444 27717 ft 514 kts
2026-05-06 02:44 24.37110 55.89675 26990 ft 514 kts 24°
2026-05-06 02:44 24.39160 55.90992 26542 ft 513 kts 33°
2026-05-06 02:44 24.42864 55.94232 25682 ft 507 kts 39°
2026-05-06 02:45 24.44592 55.95961 25264 ft 504 kts 41°
2026-05-06 02:45 24.47937 55.99469 24434 ft 496 kts 42°
2026-05-06 02:45 24.50412 56.02084 23811 ft 490 kts 42°
2026-05-06 02:45 24.52877 56.04651 23254 ft 483 kts 41°
2026-05-06 02:46 24.54497 56.06315 22995 ft 475 kts 41°
2026-05-06 02:46 24.57681 56.09533 22875 ft 466 kts 39°
2026-05-06 02:46 24.59414 56.10939 22876 ft 465 kts 30°
2026-05-06 02:46 24.62367 56.12404 22882 ft 462 kts 16°
2026-05-06 02:47 24.65439 56.13306 22873 ft 460 kts 11°
2026-05-06 02:47 24.68573 56.13977 22443 ft 450 kts
2026-05-06 02:47 24.71663 56.14516 21417 ft 453 kts
2026-05-06 02:47 24.74733 56.15002 20885 ft 446 kts
2026-05-06 02:48 24.77796 56.15354 20307 ft 437 kts 360°
2026-05-06 02:48 24.80791 56.14911 19332 ft 441 kts 343°
2026-05-06 02:48 24.83666 56.13675 18506 ft 440 kts 336°
2026-05-06 02:48 24.86419 56.12292 18010 ft 433 kts 335°
2026-05-06 02:49 24.89120 56.10935 17468 ft 423 kts 336°
2026-05-06 02:49 24.91814 56.09592 16445 ft 427 kts 336°
2026-05-06 02:49 24.94532 56.08244 15625 ft 426 kts 336°
2026-05-06 02:49 24.97172 56.06864 14889 ft 422 kts 329°
2026-05-06 02:50 24.99427 56.04812 14192 ft 419 kts 313°
2026-05-06 02:50 25.01317 56.02387 13466 ft 415 kts 310°
2026-05-06 02:50 25.03173 55.99955 12693 ft 410 kts 310°
2026-05-06 02:50 25.05016 55.97603 11928 ft 407 kts 311°
2026-05-06 02:51 25.06886 55.95261 11176 ft 403 kts 311°
2026-05-06 02:51 25.08739 55.92965 10515 ft 399 kts 311°
2026-05-06 02:51 25.10554 55.90716 9939 ft 395 kts 311°
2026-05-06 02:51 25.12373 55.88448 9328 ft 393 kts 309°
2026-05-06 02:52 25.13894 55.85954 8702 ft 390 kts 296°
2026-05-06 02:52 25.14816 55.83154 8084 ft 387 kts 282°
2026-05-06 02:52 25.14970 55.80236 7499 ft 383 kts 262°
2026-05-06 02:52 25.14202 55.77481 6922 ft 380 kts 242°
2026-05-06 02:53 25.12578 55.75199 6344 ft 376 kts 220°
2026-05-06 02:53 25.10356 55.73727 5754 ft 369 kts 202°
2026-05-06 02:53 25.08204 55.72484 5141 ft 338 kts 218°
2026-05-06 02:53 25.06795 55.70525 4561 ft 315 kts 245°
2026-05-06 02:54 25.06426 55.68236 3962 ft 299 kts 274°
2026-05-06 02:54 25.07087 55.66171 3374 ft 286 kts 304°
2026-05-06 02:54 25.08453 55.64635 2779 ft 275 kts 317°
2026-05-06 02:54 25.09837 55.63229 2273 ft 264 kts 315°
2026-05-06 02:55 25.11034 55.61811 2041 ft 242 kts 308°
2026-05-06 02:55 25.11986 55.60364 2009 ft 223 kts 302°
2026-05-06 02:55 25.12803 55.58930 2044 ft 219 kts 301°
2026-05-06 02:55 25.13582 55.57525 2022 ft 207 kts 300°
2026-05-06 02:56 25.14317 55.56190 2020 ft 204 kts 301°
2026-05-06 02:56 25.15067 55.54847 2020 ft 204 kts 301°
2026-05-06 02:56 25.15809 55.53525 2018 ft 203 kts 301°
2026-05-06 02:56 25.16557 55.52192 2021 ft 204 kts 301°
2026-05-06 02:57 25.17292 55.50875 1996 ft 203 kts 301°
2026-05-06 02:57 25.18034 55.49536 2007 ft 202 kts 301°
2026-05-06 02:57 25.18759 55.48222 1815 ft 202 kts 301°
2026-05-06 02:57 25.19485 55.46906 1545 ft 195 kts 301°
2026-05-06 02:58 25.19945 55.46075 1373 ft 185 kts 301°
2026-05-06 02:58 25.20129 55.45742 1300 ft 181 kts 302°
2026-05-06 02:58 25.20760 55.44602 1077 ft 169 kts 302°
2026-05-06 02:58 25.21362 55.43517 877 ft 163 kts 301°
2026-05-06 02:59 25.21928 55.42460 695 ft 161 kts 300°
2026-05-06 02:59 25.22506 55.41385 472 ft 162 kts 301°
2026-05-06 02:59 25.23103 55.40319 250 ft 164 kts 301°
2026-05-06 02:59 25.23717 55.39247 62 ft 168 kts 301°
2026-05-06 03:00 25.24305 55.38203 38 ft 145 kts 308°
2026-05-06 03:00 25.24695 55.37486 34 ft 53 kts 300°
2026-05-06 03:00 25.24788 55.37204 35 ft 35 kts 270°
2026-05-06 03:00 25.24787 55.37127 33 ft 2 kts 270°
2026-05-06 03:01 25.24788 55.37090 32 ft 8 kts 270°
2026-05-06 03:01 25.24788 55.37009 30 ft 13 kts 268°
2026-05-06 03:01 25.24745 55.36926 28 ft 11 kts 235°
2026-05-06 03:01 25.24752 55.36845 28 ft 12 kts 296°
2026-05-06 03:02 25.24783 55.36748 28 ft 15 kts 281°
2026-05-06 03:02 25.24813 55.36627 28 ft 18 kts 294°
2026-05-06 03:02 25.24841 55.36529 28 ft 4 kts 243°
2026-05-06 03:02 25.24830 55.36527 27 ft 1 kts 184°
2026-05-06 03:03 25.24816 55.36526 28 ft 4 kts 188°
2026-05-06 03:03 25.24792 55.36511 28 ft 5 kts 213°
2026-05-06 03:03 25.24778 55.36501 28 ft 0 kts 212°
2026-05-06 03:03 25.24777 55.36500 28 ft 0 kts 211°
2026-05-06 03:04 25.24770 55.36495 28 ft 3 kts 211°
2026-05-06 03:04 25.24769 55.36495 28 ft 0 kts 211°